,,,PA_Meas_PMT16A,,PR_Meas_QMR101_102,,RH_Meas_QMH101,,SR_Meas_QMS101,,TA_Meas_QMH101,,GenWind,,GenWind,
date,time,status,PA,status,PR,status,RH,status,SR,status,TA,status,DirAvg,status,SpdAvg,
2012-02-06, 00:00:04,VALID,1000.4,VALID,0,VALID,93.1882,VALID,0,VALID,23.3908,VALID,115,VALID,0.505469,
2012-02-06, 00:01:04,VALID,1000.4,VALID,0,VALID,93.1271,VALID,0,VALID,23.3713,VALID,115,VALID,0.454688,
2012-02-06, 00:02:04,VALID,1000.36,VALID,0,VALID,93.0585,VALID,0,VALID,23.3908,VALID,115,VALID,0.292578,
2012-02-06, 00:03:04,VALID,1000.33,VALID,0,VALID,93.028,VALID,0,VALID,23.389,VALID,115,VALID,0.274609,
2012-02-06, 00:04:04,VALID,1000.36,VALID,0,VALID,92.9593,VALID,0,VALID,23.4085,VALID,115,VALID,0.291406,
2012-02-06, 00:05:04,VALID,1000.33,VALID,0,VALID,92.9288,VALID,0,VALID,23.4085,VALID,115,VALID,0.276172,
2012-02-06, 00:06:04,VALID,1000.34,VALID,0,VALID,92.9135,VALID,0,VALID,23.4085,VALID,115,VALID,0.263281,
2012-02-06, 00:07:04,VALID,1000.35,VALID,0,VALID,92.944,VALID,0,VALID,23.428,VALID,115,VALID,0.392188,
2012-02-06, 00:08:04,VALID,1000.36,VALID,0,VALID,92.9745,VALID,0,VALID,23.428,VALID,115,VALID,0.445313,
2012-02-06, 00:09:04,VALID,1000.33,VALID,0,VALID,93.0127,VALID,0,VALID,23.4475,VALID,115,VALID,0.505078,
2012-02-06, 00:10:04,VALID,1000.31,VALID,0,VALID,93.0051,VALID,0,VALID,23.4263,VALID,115,VALID,0.401563,
2012-02-06, 00:11:04,VALID,1000.29,VALID,0,VALID,93.0127,VALID,0,VALID,23.4458,VALID,115,VALID,0.409375,
2012-02-06, 00:12:04,VALID,1000.27,VALID,0,VALID,92.9898,VALID,0,VALID,23.4458,VALID,115,VALID,0.356641,
2012-02-06, 00:13:04,VALID,1000.23,VALID,0,VALID,93.0127,VALID,0,VALID,23.4458,VALID,115,VALID,0.279297,
2012-02-06, 00:14:04,VALID,1000.24,VALID,0,VALID,93.0051,VALID,0,VALID,23.4458,VALID,115,VALID,0.25,
2012-02-06, 00:15:04,VALID,1000.18,VALID,0,VALID,92.9669,VALID,0,VALID,23.4671,VALID,115,VALID,0,
2012-02-06, 00:16:04,VALID,1000.16,VALID,0,VALID,92.9211,VALID,0.104696,VALID,23.4458,VALID,115,VALID,0,
2012-02-06, 00:17:04,VALID,1000.14,VALID,0,VALID,92.8372,VALID,0,VALID,23.4067,VALID,115,VALID,0,
2012-02-06, 00:18:04,VALID,1000.13,VALID,0,VALID,92.7762,VALID,0.104696,VALID,23.3872,VALID,115,VALID,0,
2012-02-06, 00:19:04,VALID,1000.11,VALID,0,VALID,92.7762,VALID,0,VALID,23.3908,VALID,115,VALID,0,
2012-02-06, 00:20:04,VALID,1000.08,VALID,0,VALID,92.7533,VALID,0,VALID,23.35,VALID,115,VALID,0.0253906,
2012-02-06, 00:21:04,VALID,1000.08,VALID,0,VALID,92.7609,VALID,0,VALID,23.3518,VALID,115,VALID,0,
2012-02-06, 00:22:04,VALID,1000.03,VALID,0,VALID,92.738,VALID,0,VALID,23.3127,VALID,115,VALID,0,
2012-02-06, 00:23:04,VALID,999.972,VALID,0,VALID,92.7685,VALID,0,VALID,23.3127,VALID,115,VALID,0,
2012-02-06, 00:24:04,VALID,1000,VALID,0,VALID,92.8601,VALID,0,VALID,23.2719,VALID,115,VALID,0,
2012-02-06, 00:25:04,VALID,999.943,VALID,0,VALID,92.9135,VALID,0,VALID,23.3127,VALID,115,VALID,0,
2012-02-06, 00:26:04,VALID,999.971,VALID,0,VALID,92.9135,VALID,0,VALID,23.2915,VALID,115,VALID,0,
2012-02-06, 00:27:04,VALID,999.953,VALID,0,VALID,92.944,VALID,0,VALID,23.2915,VALID,115,VALID,0.2125,
2012-02-06, 00:28:04,VALID,999.955,VALID,0,VALID,92.9517,VALID,0,VALID,23.2932,VALID,150,VALID,0.784766,
2012-02-06, 00:29:04,VALID,999.931,VALID,0,VALID,93.0737,VALID,0,VALID,23.2915,VALID,150,VALID,0.689062,
2012-02-06, 00:30:04,VALID,999.933,VALID,0,VALID,93.1119,VALID,0,VALID,23.3323,VALID,140,VALID,0.798828,
2012-02-06, 00:31:04,VALID,999.969,VALID,0,VALID,93.089,VALID,0,VALID,23.35,VALID,130,VALID,0.85625,
2012-02-06, 00:32:04,VALID,999.959,VALID,0,VALID,93.0737,VALID,0,VALID,23.4298,VALID,127,VALID,1.0375,
2012-02-06, 00:33:04,VALID,999.976,VALID,0,VALID,92.9211,VALID,0,VALID,23.4493,VALID,123,VALID,1.02461,
2012-02-06, 00:34:04,VALID,999.968,VALID,0,VALID,92.6846,VALID,0,VALID,23.428,VALID,122,VALID,1.08672,
2012-02-06, 00:35:04,VALID,999.954,VALID,0,VALID,92.5015,VALID,0,VALID,23.4475,VALID,121,VALID,0.979688,
2012-02-06, 00:36:04,VALID,999.958,VALID,0,VALID,92.3718,VALID,0,VALID,23.428,VALID,121,VALID,0.794922,
2012-02-06, 00:37:04,VALID,999.962,VALID,0,VALID,92.2192,VALID,0,VALID,23.389,VALID,120,VALID,0.817187,
2012-02-06, 00:38:04,VALID,999.943,VALID,0,VALID,92.1429,VALID,0,VALID,23.3713,VALID,120,VALID,0.74375,
2012-02-06, 00:39:04,VALID,999.935,VALID,0,VALID,92.1734,VALID,0,VALID,23.3323,VALID,120,VALID,0.626562,
2012-02-06, 00:40:04,VALID,999.923,VALID,0,VALID,92.1811,VALID,0,VALID,23.2932,VALID,120,VALID,0.884375,
2012-02-06, 00:41:04,VALID,999.91,VALID,0,VALID,92.4176,VALID,0,VALID,23.2932,VALID,118,VALID,1.00781,
2012-02-06, 00:42:04,VALID,999.903,VALID,0,VALID,92.6236,VALID,0,VALID,23.3127,VALID,117,VALID,0.826172,
2012-02-06, 00:43:04,VALID,999.896,VALID,0,VALID,92.6923,VALID,0,VALID,23.3323,VALID,117,VALID,0.755859,
2012-02-06, 00:44:04,VALID,999.862,VALID,0,VALID,92.6846,VALID,0,VALID,23.3323,VALID,117,VALID,0.680469,
2012-02-06, 00:45:04,VALID,999.882,VALID,0,VALID,92.6236,VALID,0,VALID,23.311,VALID,117,VALID,0.471875,
2012-02-06, 00:46:04,VALID,999.867,VALID,0,VALID,92.5168,VALID,0,VALID,23.2932,VALID,117,VALID,0.369531,
2012-02-06, 00:47:04,VALID,999.841,VALID,0,VALID,92.5091,VALID,0,VALID,23.2737,VALID,117,VALID,0.230469,
2012-02-06, 00:48:04,VALID,999.851,VALID,0,VALID,92.5931,VALID,0,VALID,23.2329,VALID,118,VALID,0.309375,
2012-02-06, 00:49:04,VALID,999.807,VALID,0,VALID,92.6617,VALID,0,VALID,23.2329,VALID,117,VALID,0.510547,
2012-02-06, 00:50:04,VALID,999.803,VALID,0,VALID,92.7685,VALID,0,VALID,23.2329,VALID,117,VALID,0.498828,
2012-02-06, 00:51:04,VALID,999.778,VALID,0,VALID,92.9211,VALID,0,VALID,23.2134,VALID,117,VALID,0.469922,
2012-02-06, 00:52:04,VALID,999.76,VALID,0,VALID,92.9669,VALID,0,VALID,23.2134,VALID,117,VALID,0.383984,
2012-02-06, 00:53:04,VALID,999.726,VALID,0,VALID,92.9593,VALID,0,VALID,23.2152,VALID,117,VALID,0.230859,
2012-02-06, 00:54:04,VALID,999.691,VALID,0,VALID,92.9593,VALID,0,VALID,23.1957,VALID,117,VALID,0.205859,
2012-02-06, 00:55:04,VALID,999.706,VALID,0,VALID,92.8983,VALID,0,VALID,23.1566,VALID,118,VALID,0.253516,
2012-02-06, 00:56:04,VALID,999.685,VALID,0,VALID,92.8601,VALID,0,VALID,23.0964,VALID,117,VALID,0.223828,
2012-02-06, 00:57:04,VALID,999.684,VALID,0,VALID,92.8601,VALID,0,VALID,23.0981,VALID,118,VALID,0.230469,
2012-02-06, 00:58:04,VALID,999.668,VALID,0,VALID,92.8983,VALID,0,VALID,23.0378,VALID,118,VALID,0.279687,
2012-02-06, 00:59:04,VALID,999.684,VALID,0,VALID,92.9898,VALID,0,VALID,23.0183,VALID,118,VALID,0.163672,
2012-02-06, 01:00:04,VALID,999.671,VALID,0,VALID,93.0966,VALID,0,VALID,23.0396,VALID,117,VALID,0.166406,
2012-02-06, 01:01:04,VALID,999.683,VALID,0,VALID,93.1805,VALID,0,VALID,23.0396,VALID,118,VALID,0.112109,
2012-02-06, 01:02:04,VALID,999.674,VALID,0,VALID,93.1958,VALID,0,VALID,22.9793,VALID,118,VALID,0,
2012-02-06, 01:03:04,VALID,999.688,VALID,0,VALID,93.1958,VALID,0,VALID,22.9793,VALID,118,VALID,0,
2012-02-06, 01:04:04,VALID,999.692,VALID,0,VALID,93.234,VALID,0,VALID,22.9598,VALID,118,VALID,0,
2012-02-06, 01:05:04,VALID,999.727,VALID,0,VALID,93.3331,VALID,0,VALID,22.9793,VALID,118,VALID,0.226563,
2012-02-06, 01:06:04,VALID,999.7,VALID,0,VALID,93.3866,VALID,0,VALID,22.9793,VALID,118,VALID,0.317187,
2012-02-06, 01:07:04,VALID,999.691,VALID,0,VALID,93.3866,VALID,0,VALID,22.9598,VALID,118,VALID,0.386328,
2012-02-06, 01:08:04,VALID,999.648,VALID,0,VALID,93.4171,VALID,0,VALID,22.9811,VALID,118,VALID,0.392578,
2012-02-06, 01:09:04,VALID,999.645,VALID,0,VALID,93.4857,VALID,0,VALID,22.9403,VALID,118,VALID,0.430469,
2012-02-06, 01:10:04,VALID,999.656,VALID,0,VALID,93.5697,VALID,0,VALID,22.9598,VALID,117,VALID,0.622656,
2012-02-06, 01:11:04,VALID,999.636,VALID,0,VALID,93.6002,VALID,0,VALID,22.9403,VALID,117,VALID,0.595703,
2012-02-06, 01:12:04,VALID,999.621,VALID,0,VALID,93.5239,VALID,0,VALID,22.9225,VALID,118,VALID,0.297266,
2012-02-06, 01:13:04,VALID,999.635,VALID,0,VALID,93.5239,VALID,0,VALID,22.9225,VALID,117,VALID,0.367188,
2012-02-06, 01:14:04,VALID,999.621,VALID,0,VALID,93.5086,VALID,0,VALID,22.8623,VALID,117,VALID,0.337891,
2012-02-06, 01:15:04,VALID,999.603,VALID,0,VALID,93.4781,VALID,0,VALID,22.8427,VALID,118,VALID,0.257813,
2012-02-06, 01:16:04,VALID,999.553,VALID,0,VALID,93.5086,VALID,0,VALID,22.8445,VALID,118,VALID,0.273047,
2012-02-06, 01:17:04,VALID,999.553,VALID,0,VALID,93.5697,VALID,0,VALID,22.8445,VALID,118,VALID,0.194922,
2012-02-06, 01:18:04,VALID,999.54,VALID,0,VALID,93.646,VALID,0,VALID,22.8427,VALID,118,VALID,0.312891,
2012-02-06, 01:19:04,VALID,999.546,VALID,0,VALID,93.6917,VALID,0,VALID,22.864,VALID,118,VALID,0.253516,
2012-02-06, 01:20:04,VALID,999.535,VALID,0,VALID,93.6994,VALID,0,VALID,22.864,VALID,118,VALID,0.25625,
2012-02-06, 01:21:04,VALID,999.544,VALID,0,VALID,93.7451,VALID,0,VALID,22.8623,VALID,118,VALID,0.21875,
2012-02-06, 01:22:04,VALID,999.503,VALID,0,VALID,93.7604,VALID,0,VALID,22.864,VALID,118,VALID,0.08125,
2012-02-06, 01:23:04,VALID,999.507,VALID,0,VALID,93.768,VALID,0,VALID,22.8835,VALID,118,VALID,0,
2012-02-06, 01:24:04,VALID,999.469,VALID,0,VALID,93.7909,VALID,0,VALID,22.8623,VALID,118,VALID,0.238672,
2012-02-06, 01:25:04,VALID,999.463,VALID,0,VALID,93.7909,VALID,0,VALID,22.8835,VALID,117,VALID,0.378906,
2012-02-06, 01:26:04,VALID,999.473,VALID,0,VALID,93.7909,VALID,0,VALID,22.864,VALID,117,VALID,0.556641,
2012-02-06, 01:27:04,VALID,999.48,VALID,0,VALID,93.7985,VALID,0,VALID,22.864,VALID,117,VALID,0.626562,
2012-02-06, 01:28:04,VALID,999.503,VALID,0,VALID,93.8291,VALID,0,VALID,22.864,VALID,117,VALID,0.613672,
2012-02-06, 01:29:04,VALID,999.471,VALID,0,VALID,93.8443,VALID,0,VALID,22.8835,VALID,116,VALID,0.689453,
2012-02-06, 01:30:04,VALID,999.43,VALID,0,VALID,93.8825,VALID,0,VALID,22.8623,VALID,116,VALID,0.547656,
2012-02-06, 01:31:04,VALID,999.412,VALID,0,VALID,93.8748,VALID,0,VALID,22.8427,VALID,116,VALID,0.44375,
2012-02-06, 01:32:04,VALID,999.38,VALID,0,VALID,93.9054,VALID,0,VALID,22.8427,VALID,116,VALID,0.475391,
2012-02-06, 01:33:04,VALID,999.358,VALID,0,VALID,93.8901,VALID,0,VALID,22.8623,VALID,116,VALID,0.380859,
2012-02-06, 01:34:04,VALID,999.34,VALID,0,VALID,93.8748,VALID,0,VALID,22.8623,VALID,116,VALID,0.473047,
2012-02-06, 01:35:04,VALID,999.328,VALID,0,VALID,93.8901,VALID,0,VALID,22.864,VALID,116,VALID,0.275781,
2012-02-06, 01:36:04,VALID,999.31,VALID,0,VALID,93.8825,VALID,0,VALID,22.8427,VALID,116,VALID,0.269531,
2012-02-06, 01:37:04,VALID,999.286,VALID,0,VALID,93.852,VALID,0,VALID,22.8232,VALID,116,VALID,0.271875,
2012-02-06, 01:38:04,VALID,999.271,VALID,0,VALID,93.8443,VALID,0,VALID,22.8427,VALID,116,VALID,0.588281,
2012-02-06, 01:39:04,VALID,999.236,VALID,0,VALID,93.913,VALID,0,VALID,22.8427,VALID,116,VALID,0.769531,
2012-02-06, 01:40:04,VALID,999.262,VALID,0,VALID,93.9893,VALID,0,VALID,22.9013,VALID,116,VALID,0.865234,
2012-02-06, 01:41:04,VALID,999.262,VALID,0,VALID,94.0351,VALID,0,VALID,22.9403,VALID,116,VALID,0.884766,
2012-02-06, 01:42:04,VALID,999.236,VALID,0,VALID,94.0351,VALID,0,VALID,22.9403,VALID,115,VALID,0.758984,
2012-02-06, 01:43:04,VALID,999.272,VALID,0,VALID,93.9969,VALID,0,VALID,22.9598,VALID,114,VALID,0.697656,
2012-02-06, 01:44:04,VALID,999.239,VALID,0,VALID,93.974,VALID,0.104696,VALID,22.9793,VALID,114,VALID,0.661328,
2012-02-06, 01:45:04,VALID,999.26,VALID,0,VALID,93.9283,VALID,0,VALID,22.9385,VALID,114,VALID,0.743359,
2012-02-06, 01:46:04,VALID,999.247,VALID,0,VALID,93.9206,VALID,0,VALID,22.9811,VALID,101,VALID,0.858984,
2012-02-06, 01:47:04,VALID,999.245,VALID,0,VALID,93.913,VALID,0,VALID,23.0006,VALID,72,VALID,1.04141,
2012-02-06, 01:48:04,VALID,999.228,VALID,0,VALID,93.913,VALID,0,VALID,22.9988,VALID,61,VALID,0.955859,
2012-02-06, 01:49:04,VALID,999.198,VALID,0,VALID,93.9054,VALID,0,VALID,22.9988,VALID,59,VALID,0.767969,
2012-02-06, 01:50:04,VALID,999.225,VALID,0,VALID,93.9054,VALID,0,VALID,22.9988,VALID,58,VALID,0.683203,
2012-02-06, 01:51:04,VALID,999.216,VALID,0,VALID,93.8977,VALID,0,VALID,23.0183,VALID,57,VALID,0.296875,
2012-02-06, 01:52:04,VALID,999.201,VALID,0,VALID,93.9054,VALID,0,VALID,23.0183,VALID,57,VALID,0.2375,
2012-02-06, 01:53:04,VALID,999.179,VALID,0,VALID,93.8825,VALID,0,VALID,22.9988,VALID,57,VALID,0.435156,
2012-02-06, 01:54:04,VALID,999.177,VALID,0,VALID,93.8825,VALID,0,VALID,22.9988,VALID,57,VALID,0.375781,
2012-02-06, 01:55:04,VALID,999.176,VALID,0,VALID,93.9054,VALID,0,VALID,22.9988,VALID,57,VALID,0.366797,
2012-02-06, 01:56:04,VALID,999.155,VALID,0,VALID,93.913,VALID,0,VALID,23.0183,VALID,57,VALID,0.276172,
2012-02-06, 01:57:04,VALID,999.171,VALID,0,VALID,93.9206,VALID,0,VALID,23.0183,VALID,57,VALID,0.0242187,
2012-02-06, 01:58:04,VALID,999.14,VALID,0,VALID,93.9283,VALID,0,VALID,23.0378,VALID,57,VALID,0,
2012-02-06, 01:59:04,VALID,999.173,VALID,0,VALID,93.9283,VALID,0,VALID,23.0591,VALID,57,VALID,0.302734,
2012-02-06, 02:00:04,VALID,999.141,VALID,0,VALID,93.9664,VALID,0,VALID,23.0573,VALID,57,VALID,0.286719,
2012-02-06, 02:01:04,VALID,999.155,VALID,0,VALID,93.9817,VALID,0,VALID,23.0573,VALID,57,VALID,0.246875,
2012-02-06, 02:02:04,VALID,999.162,VALID,0,VALID,93.9893,VALID,0,VALID,23.1176,VALID,57,VALID,0.315234,
2012-02-06, 02:03:04,VALID,999.185,VALID,0,VALID,94.0122,VALID,0,VALID,23.1371,VALID,57,VALID,0.558594,
2012-02-06, 02:04:04,VALID,999.203,VALID,0,VALID,94.0045,VALID,0,VALID,23.1159,VALID,57,VALID,0.625781,
2012-02-06, 02:05:04,VALID,999.202,VALID,0,VALID,93.9969,VALID,0,VALID,23.1549,VALID,57,VALID,0.575391,
2012-02-06, 02:06:04,VALID,999.21,VALID,0,VALID,93.9969,VALID,0,VALID,23.1549,VALID,57,VALID,0.577344,
2012-02-06, 02:07:04,VALID,999.226,VALID,0,VALID,93.9969,VALID,0,VALID,23.1744,VALID,57,VALID,0.546875,
2012-02-06, 02:08:04,VALID,999.244,VALID,0,VALID,93.9817,VALID,0,VALID,23.1957,VALID,57,VALID,0.486328,
2012-02-06, 02:09:04,VALID,999.236,VALID,0,VALID,93.9588,VALID,0,VALID,23.1744,VALID,57,VALID,0.403906,
2012-02-06, 02:10:04,VALID,999.23,VALID,0,VALID,93.974,VALID,0,VALID,23.2134,VALID,57,VALID,0.441406,
2012-02-06, 02:11:04,VALID,999.248,VALID,0,VALID,93.974,VALID,0,VALID,23.2134,VALID,57,VALID,0.606641,
2012-02-06, 02:12:04,VALID,999.254,VALID,0,VALID,93.9511,VALID,0,VALID,23.2329,VALID,57,VALID,0.755469,
2012-02-06, 02:13:04,VALID,999.265,VALID,0,VALID,93.913,VALID,0,VALID,23.2329,VALID,39,VALID,0.958203,
2012-02-06, 02:14:04,VALID,999.253,VALID,0,VALID,93.913,VALID,0,VALID,23.2329,VALID,24,VALID,1.11211,
2012-02-06, 02:15:04,VALID,999.249,VALID,0,VALID,93.8977,VALID,0,VALID,23.2737,VALID,24,VALID,1.32969,
2012-02-06, 02:16:04,VALID,999.249,VALID,0,VALID,93.913,VALID,0,VALID,23.2524,VALID,24,VALID,1.32461,
2012-02-06, 02:17:04,VALID,999.226,VALID,0,VALID,93.9283,VALID,0,VALID,23.2932,VALID,26,VALID,1.23008,
2012-02-06, 02:18:04,VALID,999.227,VALID,0,VALID,93.9206,VALID,0,VALID,23.2915,VALID,33,VALID,1.40234,
2012-02-06, 02:19:04,VALID,999.238,VALID,0,VALID,93.8825,VALID,0,VALID,23.2915,VALID,38,VALID,1.30273,
2012-02-06, 02:20:04,VALID,999.23,VALID,0,VALID,93.852,VALID,0,VALID,23.2915,VALID,44,VALID,1.08164,
2012-02-06, 02:21:04,VALID,999.194,VALID,0,VALID,93.7985,VALID,0,VALID,23.3127,VALID,42,VALID,1.1625,
2012-02-06, 02:22:04,VALID,999.173,VALID,0,VALID,93.7451,VALID,0,VALID,23.311,VALID,34,VALID,1.39453,
2012-02-06, 02:23:04,VALID,999.157,VALID,0,VALID,93.7223,VALID,0,VALID,23.311,VALID,39,VALID,1.22812,
2012-02-06, 02:24:04,VALID,999.145,VALID,0,VALID,93.7299,VALID,0,VALID,23.311,VALID,26,VALID,1.50742,
2012-02-06, 02:25:04,VALID,999.126,VALID,0,VALID,93.7146,VALID,0,VALID,23.311,VALID,25,VALID,1.70078,
2012-02-06, 02:26:04,VALID,999.131,VALID,0,VALID,93.7375,VALID,0,VALID,23.35,VALID,21,VALID,1.54727,
2012-02-06, 02:27:04,VALID,999.122,VALID,0,VALID,93.7146,VALID,0,VALID,23.35,VALID,18,VALID,1.43281,
2012-02-06, 02:28:04,VALID,999.098,VALID,0,VALID,93.7451,VALID,0,VALID,23.3518,VALID,18,VALID,1.41953,
2012-02-06, 02:29:04,VALID,999.115,VALID,0,VALID,93.7604,VALID,0,VALID,23.35,VALID,12,VALID,1.15898,
2012-02-06, 02:30:04,VALID,999.122,VALID,0,VALID,93.7757,VALID,0,VALID,23.35,VALID,12,VALID,1.09687,
2012-02-06, 02:31:04,VALID,999.115,VALID,0,VALID,93.7985,VALID,0,VALID,23.3695,VALID,12,VALID,0.798437,
2012-02-06, 02:32:04,VALID,999.13,VALID,0,VALID,93.7985,VALID,0,VALID,23.3908,VALID,12,VALID,0.490625,
2012-02-06, 02:33:04,VALID,999.137,VALID,0,VALID,93.8062,VALID,0,VALID,23.3695,VALID,12,VALID,0.421875,
2012-02-06, 02:34:04,VALID,999.169,VALID,0,VALID,93.7985,VALID,0,VALID,23.389,VALID,12,VALID,0.563281,
2012-02-06, 02:35:04,VALID,999.178,VALID,0,VALID,93.8291,VALID,0,VALID,23.4085,VALID,15,VALID,0.794141,
2012-02-06, 02:36:04,VALID,999.168,VALID,0,VALID,93.8214,VALID,0,VALID,23.4085,VALID,20,VALID,1.03789,
2012-02-06, 02:37:04,VALID,999.176,VALID,0,VALID,93.8367,VALID,0,VALID,23.428,VALID,37,VALID,1.04219,
2012-02-06, 02:38:04,VALID,999.16,VALID,0,VALID,93.8443,VALID,0,VALID,23.4067,VALID,48,VALID,1.29453,
2012-02-06, 02:39:04,VALID,999.184,VALID,0,VALID,93.8596,VALID,0,VALID,23.4067,VALID,56,VALID,1.18594,
2012-02-06, 02:40:04,VALID,999.174,VALID,0,VALID,93.8443,VALID,0,VALID,23.4067,VALID,66,VALID,0.896484,
2012-02-06, 02:41:04,VALID,999.129,VALID,0,VALID,93.8672,VALID,0,VALID,23.4475,VALID,62,VALID,0.957422,
2012-02-06, 02:42:04,VALID,999.165,VALID,0,VALID,93.8672,VALID,0,VALID,23.4458,VALID,62,VALID,0.428906,
2012-02-06, 02:43:04,VALID,999.14,VALID,0,VALID,93.8672,VALID,0,VALID,23.4671,VALID,63,VALID,0.649609,
2012-02-06, 02:44:04,VALID,999.119,VALID,0,VALID,93.8825,VALID,0,VALID,23.4653,VALID,63,VALID,0.342578,
2012-02-06, 02:45:04,VALID,999.107,VALID,0,VALID,93.8825,VALID,0,VALID,23.4653,VALID,63,VALID,0.452344,
2012-02-06, 02:46:04,VALID,999.108,VALID,0,VALID,93.8748,VALID,0,VALID,23.4653,VALID,63,VALID,0.284375,
2012-02-06, 02:47:04,VALID,999.098,VALID,0,VALID,93.852,VALID,0,VALID,23.5061,VALID,63,VALID,0.192969,
2012-02-06, 02:48:04,VALID,999.089,VALID,0,VALID,93.852,VALID,0,VALID,23.4866,VALID,63,VALID,0.357031,
2012-02-06, 02:49:04,VALID,999.079,VALID,0,VALID,93.8367,VALID,0,VALID,23.4866,VALID,63,VALID,0.0433594,
2012-02-06, 02:50:04,VALID,999.069,VALID,0,VALID,93.8596,VALID,0,VALID,23.5061,VALID,63,VALID,0.395703,
2012-02-06, 02:51:04,VALID,999.092,VALID,0,VALID,93.8672,VALID,0,VALID,23.5061,VALID,63,VALID,0.393359,
2012-02-06, 02:52:04,VALID,999.099,VALID,0,VALID,93.8748,VALID,0,VALID,23.5256,VALID,63,VALID,0.387891,
2012-02-06, 02:53:04,VALID,999.054,VALID,0,VALID,93.913,VALID,0,VALID,23.5469,VALID,63,VALID,0.603125,
2012-02-06, 02:54:04,VALID,999.073,VALID,0,VALID,93.9283,VALID,0,VALID,23.5451,VALID,65,VALID,0.750781,
2012-02-06, 02:55:04,VALID,999.068,VALID,0,VALID,93.913,VALID,0,VALID,23.5646,VALID,70,VALID,0.834766,
2012-02-06, 02:56:04,VALID,999.042,VALID,0,VALID,93.9206,VALID,0,VALID,23.5841,VALID,78,VALID,0.876172,
2012-02-06, 02:57:04,VALID,999.039,VALID,0,VALID,93.9283,VALID,0,VALID,23.5823,VALID,85,VALID,0.707031,
2012-02-06, 02:58:04,VALID,999.02,VALID,0,VALID,93.9054,VALID,0,VALID,23.6036,VALID,85,VALID,0.484766,
2012-02-06, 02:59:04,VALID,999.039,VALID,0,VALID,93.8901,VALID,0,VALID,23.6036,VALID,86,VALID,0.675391,
2012-02-06, 03:00:04,VALID,999.049,VALID,0,VALID,93.8672,VALID,0,VALID,23.6036,VALID,85,VALID,0.633594,
2012-02-06, 03:01:04,VALID,999.031,VALID,0,VALID,93.8977,VALID,0,VALID,23.6019,VALID,45,VALID,0.837891,
2012-02-06, 03:02:04,VALID,999.03,VALID,0,VALID,93.9206,VALID,0,VALID,23.6019,VALID,28,VALID,0.916406,
2012-02-06, 03:03:04,VALID,999.026,VALID,0,VALID,93.8901,VALID,0,VALID,23.6232,VALID,28,VALID,0.7875,
2012-02-06, 03:04:04,VALID,999.043,VALID,0,VALID,93.8825,VALID,0,VALID,23.6232,VALID,28,VALID,0.592969,
2012-02-06, 03:05:04,VALID,999.025,VALID,0,VALID,93.8901,VALID,0,VALID,23.6019,VALID,28,VALID,0.719922,
2012-02-06, 03:06:04,VALID,999.039,VALID,0,VALID,93.8901,VALID,0,VALID,23.6232,VALID,28,VALID,0.707812,
2012-02-06, 03:07:04,VALID,999.044,VALID,0,VALID,93.8748,VALID,0,VALID,23.5823,VALID,28,VALID,0.602734,
2012-02-06, 03:08:04,VALID,999.014,VALID,0,VALID,93.8596,VALID,0,VALID,23.5841,VALID,30,VALID,0.841406,
2012-02-06, 03:09:04,VALID,999.029,VALID,0,VALID,93.8291,VALID,0,VALID,23.5433,VALID,32,VALID,0.719922,
2012-02-06, 03:10:04,VALID,999.038,VALID,0,VALID,93.7833,VALID,0,VALID,23.5238,VALID,32,VALID,0.753125,
2012-02-06, 03:11:04,VALID,999.017,VALID,0,VALID,93.7833,VALID,0,VALID,23.5238,VALID,32,VALID,0.553906,
2012-02-06, 03:12:04,VALID,999.059,VALID,0,VALID,93.7757,VALID,0,VALID,23.5256,VALID,32,VALID,0.566406,
2012-02-06, 03:13:04,VALID,999.037,VALID,0,VALID,93.768,VALID,0,VALID,23.5061,VALID,32,VALID,0.549609,
2012-02-06, 03:14:04,VALID,999.041,VALID,0,VALID,93.7528,VALID,0,VALID,23.4866,VALID,32,VALID,0.456641,
2012-02-06, 03:15:04,VALID,999.034,VALID,0,VALID,93.7604,VALID,0,VALID,23.4653,VALID,32,VALID,0.420703,
2012-02-06, 03:16:04,VALID,999.042,VALID,0,VALID,93.768,VALID,0,VALID,23.4671,VALID,32,VALID,0.413672,
2012-02-06, 03:17:04,VALID,999.034,VALID,0,VALID,93.7757,VALID,0,VALID,23.4475,VALID,32,VALID,0.436719,
2012-02-06, 03:18:04,VALID,999.031,VALID,0,VALID,93.8062,VALID,0.104696,VALID,23.4458,VALID,32,VALID,0.315234,
2012-02-06, 03:19:04,VALID,999.042,VALID,0,VALID,93.8138,VALID,0,VALID,23.4475,VALID,32,VALID,0.0699219,
2012-02-06, 03:20:04,VALID,999.055,VALID,0,VALID,93.8138,VALID,0.104696,VALID,23.4475,VALID,32,VALID,0,
2012-02-06, 03:21:04,VALID,999.055,VALID,0,VALID,93.7909,VALID,0,VALID,23.428,VALID,32,VALID,0,
2012-02-06, 03:22:04,VALID,999.032,VALID,0,VALID,93.8291,VALID,0,VALID,23.4475,VALID,32,VALID,0,
2012-02-06, 03:23:04,VALID,999.061,VALID,0,VALID,93.8291,VALID,0,VALID,23.4671,VALID,32,VALID,0.366406,
2012-02-06, 03:24:04,VALID,999.062,VALID,0,VALID,93.8596,VALID,0,VALID,23.4671,VALID,32,VALID,0.333594,
2012-02-06, 03:25:04,VALID,999.052,VALID,0,VALID,93.8901,VALID,0,VALID,23.5061,VALID,321,VALID,0.317578,
2012-02-06, 03:26:04,VALID,999.059,VALID,0,VALID,93.9054,VALID,0,VALID,23.5061,VALID,321,VALID,0.322656,
2012-02-06, 03:27:04,VALID,999.081,VALID,0,VALID,93.8901,VALID,0,VALID,23.5256,VALID,321,VALID,0,
2012-02-06, 03:28:04,VALID,999.083,VALID,0,VALID,93.9054,VALID,0,VALID,23.5646,VALID,321,VALID,0,
2012-02-06, 03:29:04,VALID,999.103,VALID,0,VALID,93.913,VALID,0,VALID,23.5646,VALID,321,VALID,0,
2012-02-06, 03:30:04,VALID,999.105,VALID,0,VALID,93.913,VALID,0,VALID,23.5841,VALID,321,VALID,0,
2012-02-06, 03:31:04,VALID,999.116,VALID,0,VALID,93.8977,VALID,0,VALID,23.5841,VALID,321,VALID,0,
2012-02-06, 03:32:04,VALID,999.16,VALID,0,VALID,93.8825,VALID,0,VALID,23.6036,VALID,321,VALID,0,
2012-02-06, 03:33:04,VALID,999.164,VALID,0,VALID,93.8672,VALID,0,VALID,23.6036,VALID,321,VALID,0,
2012-02-06, 03:34:04,VALID,999.144,VALID,0,VALID,93.8596,VALID,0,VALID,23.625,VALID,321,VALID,0,
2012-02-06, 03:35:04,VALID,999.151,VALID,0,VALID,93.8367,VALID,0,VALID,23.6054,VALID,321,VALID,0,
2012-02-06, 03:36:04,VALID,999.163,VALID,0,VALID,93.8291,VALID,0,VALID,23.6036,VALID,321,VALID,0,
2012-02-06, 03:37:04,VALID,999.166,VALID,0,VALID,93.8138,VALID,0,VALID,23.625,VALID,321,VALID,0,
2012-02-06, 03:38:04,VALID,999.192,VALID,0,VALID,93.7985,VALID,0,VALID,23.625,VALID,321,VALID,0,
2012-02-06, 03:39:04,VALID,999.223,VALID,0,VALID,93.8291,VALID,0,VALID,23.6445,VALID,321,VALID,0,
2012-02-06, 03:40:04,VALID,999.22,VALID,0,VALID,93.8138,VALID,0,VALID,23.6427,VALID,321,VALID,0,
2012-02-06, 03:41:04,VALID,999.264,VALID,0,VALID,93.8291,VALID,0,VALID,23.6427,VALID,321,VALID,0,
2012-02-06, 03:42:04,VALID,999.276,VALID,0,VALID,93.8367,VALID,0,VALID,23.664,VALID,321,VALID,0,
2012-02-06, 03:43:04,VALID,999.305,VALID,0,VALID,93.8672,VALID,0,VALID,23.703,VALID,302,VALID,0.517578,
2012-02-06, 03:44:04,VALID,999.303,VALID,0,VALID,93.8825,VALID,0,VALID,23.7012,VALID,263,VALID,1.3457,
2012-02-06, 03:45:04,VALID,999.296,VALID,0,VALID,93.8825,VALID,0,VALID,23.7012,VALID,224,VALID,0.971094,
2012-02-06, 03:46:04,VALID,999.299,VALID,0,VALID,93.8291,VALID,0,VALID,23.7225,VALID,219,VALID,0.844922,
2012-02-06, 03:47:04,VALID,999.298,VALID,0,VALID,93.8291,VALID,0,VALID,23.703,VALID,222,VALID,0.473437,